sat.trackr.live / text

‹ back to catalog

WGS F2 (USA 204)

NORAD 34713 · 2009-017A

PAYLOAD ACTIVE UNKNOWN

§ Identity

Operator
Country
US
Launch date
2009-04-04
Launch site
AFETR
Launch vehicle
Mass (kg)
RCS (m²)
5.01

Purposes: comms

External: N2YO · Heavens-Above · Gunter

§ Orbital elements

Epoch: 2026-09-11T18:19:38.662752Z

Period
1,436.11 min
Inclination
0.0237°
Eccentricity
0.0000320
Mean motion
1.00271084 rev/d
Perigee alt
35,785.4 km
Apogee alt
35,788.1 km
Semi-major
42,164.9 km
B*
0.0000e+0
RAAN
151.7948°
Arg perigee
355.6511°
Mean anomaly
175.7614°
Rev number
4,648

§ Raw data

WGS F2 (USA 204)1 34713U 09017A   26254.76364193  .00000000  00000+0  00000+0 0  99912 34713   0.0237 151.7948 0000320 355.6511 175.7614  1.00271084 46484

JSON: /api/v1/satellites/34713 · /tle

For live sub-satellite position, see the globe view (requires WebGL).

§ Visibility from observer

Set your observer location to see the next 7 days of passes ≥ 10°. The values pass through the URL so the page stays shareable.

No JS? Fill the form by hand. The geolocation button needs JavaScript.